{"data":{"norad_id":52493,"intl_designator":"2022-049AU","name":"STARLINK-3883","alt_names":[],"object_type":"PAYLOAD","status":"ACTIVE","operator":null,"country":"US","launch_date":"2022-05-06","launch_site_code":"AFETR","launch_vehicle":null,"mission":null,"orbit_class":"UNKNOWN","rcs_meters":null,"size_class":null,"mass_kg":null,"dimensions":null,"purposes":["comms"],"wikipedia_slug":null,"has_3d_model":false,"image_url":null,"decayed_at":null,"tle_current":{"epoch":"2026-09-19T23:29:46.767264Z","epoch_age_seconds":108319,"freshness":"FRESH","line1":"1 52493U 22049AU  26262.97901351  .00000513  00000+0  25624-4 0  9994","line2":"2 52493  53.1607 246.4251 0001421  87.1007 273.0158 15.35398591241868","mean_motion":15.35398591,"eccentricity":0.0001421,"inclination_deg":53.1607,"raan_deg":246.4251,"arg_perigee_deg":87.1007,"mean_anomaly_deg":273.0158,"bstar":2.5624e-5,"rev_number":24186,"period_min":93.786721470295,"perigee_km":458.76516417365,"apogee_km":460.70848791501,"semimajor_km":6837.8738260443,"source":"CELESTRAK","updated_at":"2026-09-20T09:00:40.055982Z"}}}